Tracking 19831 objects as of 23-Aug-2019
HD Live streaming from Space Station
objects crossing your sky now

SL-8 R/B

Track SL-8 R/B now!
10-day predictions


NORAD ID: 6993
Int'l Code: 1973-104J
Perigee: 1,482.0 km
Apogee: 1,628.3 km
Inclination: 74.0 °
Period: 117.0 minutes
Semi major axis: 7926 km
RCS: 6.4131 m2 (large)
Launch date: December 19, 1973
Source: Commonwealth of Independent States (former USSR) (CIS)
Launch site: PLESETSK MISSILE AND SPACE COMPLEX (PKMTR)

Note: This is a ROCKET BODY
aabbcc
Your satellite tracking list
Your tracking list is empty




NASA's NSSDC Master Catalog

Two Line Element Set (TLE):
1  6993U 73104J   19235.19742083 -.00000016  00000-0 -88154-5 0  9996
2  6993  74.0339 127.7466 0092319 213.2542 263.3580 12.30299437 51475
Source of the keplerian elements: AFSPC